﻿測定場所 (Monitoring sites),日付 (Measurement date),時間 (Measurement time),線量率 最大値 (max) μGy/h,線量率 最小値 (min) μGy/h,線量率 平均値 (average) μGy/h,
足立 (Adachi),2013-05-12,23:01～24:00,0.0551,0.0488,0.0522,
足立 (Adachi),2013-05-12,22:01～23:00,0.0562,0.0484,0.0520,
足立 (Adachi),2013-05-12,21:01～22:00,0.0557,0.0482,0.0519,
足立 (Adachi),2013-05-12,20:01～21:00,0.0555,0.0493,0.0521,
足立 (Adachi),2013-05-12,19:01～20:00,0.0570,0.0479,0.0524,
足立 (Adachi),2013-05-12,18:01～19:00,0.0550,0.0496,0.0520,
足立 (Adachi),2013-05-12,17:01～18:00,0.0552,0.0489,0.0519,
足立 (Adachi),2013-05-12,16:01～17:00,0.0556,0.0485,0.0519,
足立 (Adachi),2013-05-12,15:01～16:00,0.0544,0.0473,0.0520,
足立 (Adachi),2013-05-12,14:01～15:00,0.0559,0.0489,0.0523,
足立 (Adachi),2013-05-12,13:01～14:00,0.0553,0.0503,0.0524,
足立 (Adachi),2013-05-12,12:01～13:00,0.0556,0.0477,0.0518,
足立 (Adachi),2013-05-12,11:01～12:00,0.0553,0.0481,0.0517,
足立 (Adachi),2013-05-12,10:01～11:00,0.0551,0.0485,0.0517,
足立 (Adachi),2013-05-12,09:01～10:00,0.0555,0.0482,0.0515,
足立 (Adachi),2013-05-12,08:01～09:00,0.0550,0.0485,0.0517,
足立 (Adachi),2013-05-12,07:01～08:00,0.0541,0.0469,0.0515,
足立 (Adachi),2013-05-12,06:01～07:00,0.0536,0.0484,0.0514,
足立 (Adachi),2013-05-12,05:01～06:00,0.0547,0.0490,0.0517,
足立 (Adachi),2013-05-12,04:01～05:00,0.0554,0.0484,0.0524,
足立 (Adachi),2013-05-12,03:01～04:00,0.0595,0.0502,0.0554,
足立 (Adachi),2013-05-12,02:01～03:00,0.0661,0.0560,0.0613,
足立 (Adachi),2013-05-12,01:01～02:00,0.0654,0.0596,0.0630,
足立 (Adachi),2013-05-12,00:01～01:00,0.0642,0.0510,0.0571,
足立 (Adachi),2013-05-11,23:01～24:00,0.0566,0.0486,0.0524,
足立 (Adachi),2013-05-11,22:01～23:00,0.0621,0.0508,0.0558,
足立 (Adachi),2013-05-11,21:01～22:00,0.0638,0.0570,0.0605,
足立 (Adachi),2013-05-11,20:01～21:00,0.0632,0.0545,0.0597,
足立 (Adachi),2013-05-11,19:01～20:00,0.0662,0.0571,0.0607,
足立 (Adachi),2013-05-11,18:01～19:00,0.0649,0.0576,0.0612,
足立 (Adachi),2013-05-11,17:01～18:00,0.0653,0.0574,0.0614,
足立 (Adachi),2013-05-11,16:01～17:00,0.0656,0.0582,0.0620,
足立 (Adachi),2013-05-11,15:01～16:00,0.0658,0.0583,0.0626,
足立 (Adachi),2013-05-11,14:01～15:00,0.0654,0.0577,0.0626,
足立 (Adachi),2013-05-11,13:01～14:00,0.0643,0.0556,0.0609,
足立 (Adachi),2013-05-11,12:01～13:00,0.0614,0.0542,0.0579,
足立 (Adachi),2013-05-11,11:01～12:00,0.0647,0.0572,0.0599,
足立 (Adachi),2013-05-11,10:01～11:00,0.0643,0.0556,0.0590,
足立 (Adachi),2013-05-11,09:01～10:00,0.0614,0.0512,0.0555,
足立 (Adachi),2013-05-11,08:01～09:00,0.0569,0.0510,0.0539,
足立 (Adachi),2013-05-11,07:01～08:00,0.0576,0.0510,0.0545,
足立 (Adachi),2013-05-11,06:01～07:00,0.0598,0.0517,0.0549,
足立 (Adachi),2013-05-11,05:01～06:00,0.0586,0.0521,0.0551,
足立 (Adachi),2013-05-11,04:01～05:00,0.0570,0.0510,0.0548,
足立 (Adachi),2013-05-11,03:01～04:00,0.0593,0.0515,0.0544,
足立 (Adachi),2013-05-11,02:01～03:00,0.0588,0.0500,0.0549,
足立 (Adachi),2013-05-11,01:01～02:00,0.0594,0.0525,0.0556,
足立 (Adachi),2013-05-11,00:01～01:00,0.0611,0.0527,0.0569,
足立 (Adachi),2013-05-10,23:01～24:00,0.0628,0.0554,0.0586,
足立 (Adachi),2013-05-10,22:01～23:00,0.0611,0.0546,0.0574,
足立 (Adachi),2013-05-10,21:01～22:00,0.0592,0.0526,0.0559,
足立 (Adachi),2013-05-10,20:01～21:00,0.0601,0.0525,0.0557,
足立 (Adachi),2013-05-10,19:01～20:00,0.0579,0.0514,0.0551,
足立 (Adachi),2013-05-10,18:01～19:00,0.0573,0.0517,0.0546,
足立 (Adachi),2013-05-10,17:01～18:00,0.0587,0.0506,0.0546,
足立 (Adachi),2013-05-10,16:01～17:00,0.0591,0.0522,0.0555,
足立 (Adachi),2013-05-10,15:01～16:00,0.0584,0.0510,0.0555,
足立 (Adachi),2013-05-10,14:01～15:00,0.0590,0.0516,0.0549,
足立 (Adachi),2013-05-10,13:01～14:00,0.0589,0.0515,0.0551,
足立 (Adachi),2013-05-10,12:01～13:00,0.0591,0.0516,0.0553,
足立 (Adachi),2013-05-10,11:01～12:00,0.0591,0.0523,0.0554,
足立 (Adachi),2013-05-10,10:01～11:00,0.0586,0.0528,0.0552,
足立 (Adachi),2013-05-10,09:01～10:00,0.0579,0.0523,0.0550,
足立 (Adachi),2013-05-10,08:01～09:00,0.0579,0.0514,0.0553,
足立 (Adachi),2013-05-10,07:01～08:00,0.0584,0.0513,0.0554,
足立 (Adachi),2013-05-10,06:01～07:00,0.0585,0.0508,0.0553,
足立 (Adachi),2013-05-10,05:01～06:00,0.0599,0.0532,0.0563,
足立 (Adachi),2013-05-10,04:01～05:00,0.0600,0.0525,0.0557,
足立 (Adachi),2013-05-10,03:01～04:00,0.0592,0.0525,0.0553,
足立 (Adachi),2013-05-10,02:01～03:00,0.0590,0.0521,0.0552,
足立 (Adachi),2013-05-10,01:01～02:00,0.0597,0.0515,0.0554,
足立 (Adachi),2013-05-10,00:01～01:00,0.0586,0.0516,0.0554,
足立 (Adachi),2013-05-09,23:01～24:00,0.0583,0.0518,0.0554,
足立 (Adachi),2013-05-09,22:01～23:00,0.0591,0.0510,0.0553,
足立 (Adachi),2013-05-09,21:01～22:00,0.0581,0.0512,0.0548,
足立 (Adachi),2013-05-09,20:01～21:00,0.0571,0.0516,0.0546,
足立 (Adachi),2013-05-09,19:01～20:00,0.0595,0.0512,0.0547,
足立 (Adachi),2013-05-09,18:01～19:00,0.0593,0.0513,0.0545,
足立 (Adachi),2013-05-09,17:01～18:00,0.0577,0.0509,0.0546,
足立 (Adachi),2013-05-09,16:01～17:00,0.0578,0.0488,0.0547,
足立 (Adachi),2013-05-09,15:01～16:00,0.0569,0.0513,0.0544,
足立 (Adachi),2013-05-09,14:01～15:00,0.0574,0.0502,0.0539,
足立 (Adachi),2013-05-09,13:01～14:00,0.0554,0.0484,0.0522,
足立 (Adachi),2013-05-09,12:01～13:00,0.0572,0.0483,0.0539,
足立 (Adachi),2013-05-09,11:01～12:00,0.0590,0.0516,0.0546,
足立 (Adachi),2013-05-09,10:01～11:00,0.0577,0.0517,0.0549,
足立 (Adachi),2013-05-09,09:01～10:00,0.0580,0.0519,0.0551,
足立 (Adachi),2013-05-09,08:01～09:00,0.0580,0.0518,0.0551,
足立 (Adachi),2013-05-09,07:01～08:00,0.0576,0.0493,0.0541,
足立 (Adachi),2013-05-09,06:01～07:00,0.0567,0.0518,0.0543,
足立 (Adachi),2013-05-09,05:01～06:00,0.0583,0.0516,0.0545,
足立 (Adachi),2013-05-09,04:01～05:00,0.0602,0.0524,0.0551,
足立 (Adachi),2013-05-09,03:01～04:00,0.0590,0.0523,0.0553,
足立 (Adachi),2013-05-09,02:01～03:00,0.0583,0.0507,0.0549,
足立 (Adachi),2013-05-09,01:01～02:00,0.0587,0.0514,0.0551,
足立 (Adachi),2013-05-09,00:01～01:00,0.0593,0.0516,0.0550,
足立 (Adachi),2013-05-08,23:01～24:00,0.0581,0.0522,0.0551,
足立 (Adachi),2013-05-08,22:01～23:00,0.0591,0.0516,0.0547,
足立 (Adachi),2013-05-08,21:01～22:00,0.0579,0.0516,0.0546,
足立 (Adachi),2013-05-08,20:01～21:00,0.0581,0.0507,0.0545,
足立 (Adachi),2013-05-08,19:01～20:00,0.0580,0.0513,0.0542,
足立 (Adachi),2013-05-08,18:01～19:00,0.0562,0.0505,0.0538,
足立 (Adachi),2013-05-08,17:01～18:00,0.0577,0.0504,0.0540,
足立 (Adachi),2013-05-08,16:01～17:00,0.0576,0.0518,0.0546,
足立 (Adachi),2013-05-08,15:01～16:00,0.0571,0.0515,0.0545,
足立 (Adachi),2013-05-08,14:01～15:00,0.0575,0.0507,0.0539,
足立 (Adachi),2013-05-08,13:01～14:00,0.0579,0.0515,0.0544,
足立 (Adachi),2013-05-08,12:01～13:00,0.0576,0.0513,0.0538,
足立 (Adachi),2013-05-08,11:01～12:00,0.0581,0.0500,0.0545,
足立 (Adachi),2013-05-08,10:01～11:00,0.0582,0.0518,0.0550,
足立 (Adachi),2013-05-08,09:01～10:00,0.0586,0.0505,0.0544,
足立 (Adachi),2013-05-08,08:01～09:00,0.0572,0.0503,0.0540,
足立 (Adachi),2013-05-08,07:01～08:00,0.0576,0.0506,0.0541,
足立 (Adachi),2013-05-08,06:01～07:00,0.0582,0.0512,0.0543,
足立 (Adachi),2013-05-08,05:01～06:00,0.0575,0.0510,0.0538,
足立 (Adachi),2013-05-08,04:01～05:00,0.0579,0.0510,0.0541,
足立 (Adachi),2013-05-08,03:01～04:00,0.0565,0.0517,0.0539,
足立 (Adachi),2013-05-08,02:01～03:00,0.0580,0.0514,0.0540,
足立 (Adachi),2013-05-08,01:01～02:00,0.0581,0.0514,0.0539,
足立 (Adachi),2013-05-08,00:01～01:00,0.0577,0.0506,0.0539,
足立 (Adachi),2013-05-07,23:01～24:00,0.0573,0.0513,0.0540,
足立 (Adachi),2013-05-07,22:01～23:00,0.0568,0.0510,0.0540,
足立 (Adachi),2013-05-07,21:01～22:00,0.0577,0.0504,0.0542,
足立 (Adachi),2013-05-07,20:01～21:00,0.0570,0.0510,0.0541,
足立 (Adachi),2013-05-07,19:01～20:00,0.0584,0.0503,0.0536,
足立 (Adachi),2013-05-07,18:01～19:00,0.0580,0.0497,0.0541,
足立 (Adachi),2013-05-07,17:01～18:00,0.0582,0.0508,0.0544,
足立 (Adachi),2013-05-07,16:01～17:00,0.0571,0.0509,0.0542,
足立 (Adachi),2013-05-07,15:01～16:00,0.0575,0.0505,0.0543,
足立 (Adachi),2013-05-07,14:01～15:00,0.0574,0.0508,0.0540,
足立 (Adachi),2013-05-07,13:01～14:00,0.0570,0.0505,0.0541,
足立 (Adachi),2013-05-07,12:01～13:00,0.0582,0.0511,0.0543,
足立 (Adachi),2013-05-07,11:01～12:00,0.0577,0.0509,0.0541,
足立 (Adachi),2013-05-07,10:01～11:00,0.0579,0.0502,0.0542,
足立 (Adachi),2013-05-07,09:01～10:00,0.0565,0.0511,0.0537,
足立 (Adachi),2013-05-07,08:01～09:00,0.0588,0.0517,0.0541,
足立 (Adachi),2013-05-07,07:01～08:00,0.0569,0.0501,0.0534,
足立 (Adachi),2013-05-07,06:01～07:00,0.0571,0.0498,0.0533,
足立 (Adachi),2013-05-07,05:01～06:00,0.0570,0.0495,0.0535,
足立 (Adachi),2013-05-07,04:01～05:00,0.0578,0.0499,0.0533,
足立 (Adachi),2013-05-07,03:01～04:00,0.0567,0.0497,0.0535,
足立 (Adachi),2013-05-07,02:01～03:00,0.0581,0.0493,0.0534,
足立 (Adachi),2013-05-07,01:01～02:00,0.0563,0.0501,0.0536,
足立 (Adachi),2013-05-07,00:01～01:00,0.0573,0.0495,0.0536,
足立 (Adachi),2013-05-06,23:01～24:00,0.0581,0.0486,0.0540,
足立 (Adachi),2013-05-06,22:01～23:00,0.0583,0.0498,0.0541,
足立 (Adachi),2013-05-06,21:01～22:00,0.0578,0.0507,0.0546,
足立 (Adachi),2013-05-06,20:01～21:00,0.0581,0.0513,0.0545,
足立 (Adachi),2013-05-06,19:01～20:00,0.0592,0.0523,0.0553,
足立 (Adachi),2013-05-06,18:01～19:00,0.0641,0.0548,0.0594,
足立 (Adachi),2013-05-06,17:01～18:00,0.0659,0.0517,0.0579,
足立 (Adachi),2013-05-06,16:01～17:00,0.0574,0.0517,0.0548,
足立 (Adachi),2013-05-06,15:01～16:00,0.0572,0.0508,0.0547,
足立 (Adachi),2013-05-06,14:01～15:00,0.0580,0.0512,0.0542,
足立 (Adachi),2013-05-06,13:01～14:00,0.0592,0.0511,0.0551,
足立 (Adachi),2013-05-06,12:01～13:00,0.0571,0.0516,0.0544,
足立 (Adachi),2013-05-06,11:01～12:00,0.0565,0.0517,0.0544,
足立 (Adachi),2013-05-06,10:01～11:00,0.0575,0.0498,0.0548,
足立 (Adachi),2013-05-06,09:01～10:00,0.0581,0.0504,0.0544,
足立 (Adachi),2013-05-06,08:01～09:00,0.0582,0.0512,0.0550,
足立 (Adachi),2013-05-06,07:01～08:00,0.0585,0.0516,0.0554,
足立 (Adachi),2013-05-06,06:01～07:00,0.0585,0.0520,0.0553,
足立 (Adachi),2013-05-06,05:01～06:00,0.0600,0.0524,0.0557,
足立 (Adachi),2013-05-06,04:01～05:00,0.0577,0.0526,0.0550,
足立 (Adachi),2013-05-06,03:01～04:00,0.0571,0.0508,0.0541,
足立 (Adachi),2013-05-06,02:01～03:00,0.0585,0.0510,0.0542,
足立 (Adachi),2013-05-06,01:01～02:00,0.0575,0.0514,0.0545,
足立 (Adachi),2013-05-06,00:01～01:00,0.0574,0.0504,0.0542,
